When you browse on this site, cookies collect data to enhance your experience and personalize the content and advertising you see.
Visit our Privacy Policy to learn more. By continuing to use the site, you agree to this use of cookies and data.
  • In Hungary
  • List of Countries
  • For 7 days
  • Water Temperature
  • Satellite Maps
  • Weather Map
  • News
  • Weather Widgets
  • user-avatar
    Login

    Hourly Weather Ko Chang

    Today, 22 February, Friday

    Time Temperature Precipitation Wind Pressure Humidity
    00:00 +28°C° 0 mm 1 mps 752 mmHg 79%
    01:00 +28°C° 0 mm 1 mps 751 mmHg 80%
    02:00 +28°C° 0 mm 1 mps 751 mmHg 81%
    03:00 +28°C° 0 mm 1 mps 751 mmHg 81%
    04:00 +26°C° 0 mm 0 mps 751 mmHg 81%
    05:00 +28°C° 0 mm 1 mps 751 mmHg 82%
    06:00 +28°C° 0 mm 1 mps 751 mmHg 82%
    07:00 +28°C° 0 mm 1 mps 751 mmHg 83%
    08:00 +29°C° 0 mm 1 mps 752 mmHg 77%
    09:00 +30°C° 0 mm 1 mps 752 mmHg 70%
    10:00 +32°C° 0 mm 1 mps 752 mmHg 64%
    11:00 +32°C° 0 mm 2 mps 752 mmHg 63%
    12:00 +34°C° 0 mm 2 mps 751 mmHg 61%
    13:00 +34°C° 0 mm 3 mps 751 mmHg 60%
    14:00 +34°C° 0 mm 3 mps 750 mmHg 62%
    15:00 +33°C° 0 mm 3 mps 750 mmHg 63%
    16:00 +33°C° 0 mm 3 mps 749 mmHg 65%
    17:00 +31°C° 0 mm 3 mps 749 mmHg 68%
    18:00 +30°C° 0 mm 2 mps 750 mmHg 72%
    19:00 +29°C° 0 mm 2 mps 750 mmHg 75%
    20:00 +29°C° 0 mm 2 mps 750 mmHg 76%
    21:00 +29°C° 0 mm 2 mps 750 mmHg 77%
    22:00 +29°C° 0 mm 2 mps 751 mmHg 79%
    23:00 +28°C° 0 mm 2 mps 751 mmHg 80%

    Tomorrow, 23 February, Saturday

    Time Temperature Precipitation Wind Pressure Humidity
    00:00 +28°C° 0 mm 3 mps 751 mmHg 81%
    01:00 +28°C° 0 mm 3 mps 750 mmHg 82%
    02:00 +28°C° 0.1 mm 3 mps 750 mmHg 83%
    03:00 +28°C° 0.1 mm 3 mps 750 mmHg 83%
    04:00 +28°C° 0.1 mm 3 mps 749 mmHg 84%
    05:00 +28°C° 0.1 mm 3 mps 750 mmHg 85%
    06:00 +28°C° 0.1 mm 3 mps 750 mmHg 85%
    07:00 +28°C° 0.1 mm 3 mps 750 mmHg 85%
    08:00 +29°C° 0 mm 3 mps 751 mmHg 80%
    09:00 +30°C° 0 mm 3 mps 751 mmHg 74%
    10:00 +31°C° 0 mm 3 mps 752 mmHg 69%
    11:00 +33°C° 0 mm 4 mps 751 mmHg 67%
    12:00 +33°C° 0 mm 4 mps 751 mmHg 66%
    13:00 +33°C° 0 mm 4 mps 750 mmHg 64%
    14:00 +33°C° 0 mm 4 mps 749 mmHg 66%
    15:00 +33°C° 0 mm 4 mps 749 mmHg 67%
    16:00 +32°C° 0 mm 4 mps 748 mmHg 69%
    17:00 +30°C° 0.5 mm 4 mps 748 mmHg 72%
    18:00 +30°C° 0.5 mm 4 mps 749 mmHg 76%
    19:00 +29°C° 0.5 mm 4 mps 749 mmHg 80%
    20:00 +29°C° 1.9 mm 4 mps 750 mmHg 81%
    21:00 +28°C° 1.9 mm 4 mps 750 mmHg 82%
    22:00 +28°C° 1.9 mm 3 mps 751 mmHg 83%
    23:00 +28°C° 0.2 mm 4 mps 751 mmHg 82%

    Day after tomorrow, 24 February, Sunday

    Time Temperature Precipitation Wind Pressure Humidity
    00:00 +28°C° 0.2 mm 4 mps 750 mmHg 81%
    01:00 +28°C° 0.2 mm 4 mps 750 mmHg 81%
    02:00 +28°C° 0.4 mm 3 mps 750 mmHg 81%
    03:00 +28°C° 0.4 mm 3 mps 749 mmHg 81%
    04:00 +27°C° 0.4 mm 3 mps 749 mmHg 81%
    05:00 +27°C° 0.3 mm 3 mps 749 mmHg 81%
    06:00 +27°C° 0.3 mm 3 mps 750 mmHg 81%
    07:00 +27°C° 0.3 mm 3 mps 750 mmHg 81%
    08:00 +29°C° 0.1 mm 4 mps 751 mmHg 75%
    09:00 +30°C° 0.1 mm 4 mps 751 mmHg 69%
    10:00 +33°C° 0.1 mm 4 mps 752 mmHg 64%
    11:00 +33°C° 0 mm 4 mps 751 mmHg 62%
    12:00 +34°C° 0 mm 4 mps 750 mmHg 61%
    13:00 +34°C° 0 mm 4 mps 749 mmHg 60%
    14:00 +34°C° 0 mm 4 mps 749 mmHg 62%
    15:00 +33°C° 0 mm 4 mps 748 mmHg 64%
    16:00 +33°C° 0 mm 4 mps 747 mmHg 66%
    17:00 +31°C° 0 mm 3 mps 748 mmHg 70%
    18:00 +30°C° 0 mm 3 mps 748 mmHg 73%
    19:00 +29°C° 0 mm 2 mps 749 mmHg 77%
    20:00 +29°C° 0 mm 2 mps 749 mmHg 78%
    21:00 +29°C° 0 mm 3 mps 750 mmHg 80%
    22:00 +29°C° 0 mm 3 mps 751 mmHg 81%
    23:00 +28°C° 1.5 mm 3 mps 750 mmHg 83%

    25 February, Monday

    Time Temperature Precipitation Wind Pressure Humidity
    00:00 +28°C° 1.5 mm 2 mps 750 mmHg 85%
    01:00 +28°C° 1.5 mm 2 mps 750 mmHg 86%
    02:00 +28°C° 0.6 mm 3 mps 749 mmHg 86%
    03:00 +28°C° 0.6 mm 3 mps 749 mmHg 86%
    04:00 +27°C° 0.6 mm 3 mps 749 mmHg 86%
    05:00 +28°C° 0 mm 4 mps 749 mmHg 86%
    06:00 +28°C° 0 mm 4 mps 750 mmHg 85%
    07:00 +28°C° 0 mm 4 mps 750 mmHg 85%
    08:00 +29°C° 0.2 mm 4 mps 751 mmHg 79%
    09:00 +30°C° 0.2 mm 4 mps 751 mmHg 74%
    10:00 +32°C° 0.2 mm 4 mps 752 mmHg 68%
    11:00 +32°C° 0.3 mm 4 mps 751 mmHg 67%
    12:00 +33°C° 0.3 mm 5 mps 751 mmHg 66%
    13:00 +33°C° 0.3 mm 5 mps 750 mmHg 65%
    14:00 +32°C° 1.6 mm 5 mps 749 mmHg 68%
    15:00 +32°C° 1.6 mm 4 mps 749 mmHg 71%
    16:00 +30°C° 1.6 mm 4 mps 748 mmHg 74%
    17:00 +29°C° 0.8 mm 4 mps 749 mmHg 76%
    18:00 +29°C° 0.8 mm 3 mps 749 mmHg 79%
    19:00 +28°C° 0.8 mm 3 mps 750 mmHg 81%
    20:00 +28°C° 1 mm 3 mps 750 mmHg 83%
    21:00 +28°C° 1 mm 3 mps 751 mmHg 84%
    22:00 +28°C° 1 mm 3 mps 751 mmHg 86%
    23:00 +28°C° 0.2 mm 3 mps 751 mmHg 85%

    26 February, Tuesday

    Time Temperature Precipitation Wind Pressure Humidity
    00:00 +27°C° 0.2 mm 3 mps 750 mmHg 84%
    01:00 +27°C° 0.2 mm 2 mps 750 mmHg 84%
    02:00 +27°C° 0 mm 3 mps 750 mmHg 84%
    03:00 +27°C° 0 mm 4 mps 750 mmHg 84%
    04:00 +27°C° 0 mm 4 mps 749 mmHg 85%
    05:00 +27°C° 0.2 mm 4 mps 750 mmHg 85%
    06:00 +27°C° 0.2 mm 4 mps 751 mmHg 85%
    07:00 +27°C° 0.2 mm 4 mps 751 mmHg 85%
    08:00 +29°C° 0 mm 4 mps 752 mmHg 79%
    09:00 +30°C° 0 mm 3 mps 752 mmHg 73%
    10:00 +31°C° 0 mm 3 mps 752 mmHg 67%
    11:00 +33°C° 0 mm 3 mps 752 mmHg 65%
    12:00 +33°C° 0 mm 3 mps 751 mmHg 64%
    13:00 +34°C° 0 mm 4 mps 750 mmHg 62%
    14:00 +33°C° 0.3 mm 4 mps 749 mmHg 67%
    15:00 +32°C° 0.3 mm 4 mps 749 mmHg 71%
    16:00 +30°C° 0.3 mm 4 mps 748 mmHg 76%
    17:00 +29°C° 0.2 mm 4 mps 749 mmHg 78%
    18:00 +29°C° 0.2 mm 3 mps 749 mmHg 80%
    19:00 +28°C° 0.2 mm 3 mps 750 mmHg 82%
    20:00 +28°C° 0.1 mm 3 mps 750 mmHg 82%
    21:00 +28°C° 0.1 mm 2 mps 750 mmHg 83%
    22:00 +28°C° 0.1 mm 2 mps 751 mmHg 84%
    23:00 +28°C° 0.8 mm 2 mps 750 mmHg 84%

    27 February, Wednesday

    Time Temperature Precipitation Wind Pressure Humidity
    00:00 +27°C° 0.8 mm 2 mps 750 mmHg 85%
    01:00 +27°C° 0.8 mm 2 mps 750 mmHg 85%
    02:00 +27°C° 0.1 mm 3 mps 750 mmHg 85%
    03:00 +27°C° 0.1 mm 3 mps 750 mmHg 86%
    04:00 +27°C° 0.1 mm 3 mps 750 mmHg 86%
    05:00 +27°C° 0.3 mm 3 mps 750 mmHg 86%
    06:00 +27°C° 0.3 mm 3 mps 751 mmHg 87%
    07:00 +27°C° 0.3 mm 3 mps 751 mmHg 87%
    08:00 +28°C° 0 mm 3 mps 751 mmHg 81%
    09:00 +30°C° 0 mm 3 mps 752 mmHg 74%
    10:00 +31°C° 0 mm 3 mps 752 mmHg 68%
    11:00 +31°C° 0 mm 3 mps 751 mmHg 67%
    12:00 +33°C° 0 mm 3 mps 751 mmHg 65%
    13:00 +33°C° 0 mm 4 mps 750 mmHg 64%
    14:00 +32°C° 0.2 mm 4 mps 750 mmHg 67%
    15:00 +32°C° 0.2 mm 4 mps 749 mmHg 71%
    16:00 +30°C° 0.2 mm 4 mps 749 mmHg 74%
    17:00 +29°C° 0.3 mm 3 mps 749 mmHg 77%
    18:00 +29°C° 0.3 mm 3 mps 749 mmHg 79%
    19:00 +28°C° 0.3 mm 2 mps 750 mmHg 82%
    20:00 +28°C° 0 mm 2 mps 750 mmHg 82%
    21:00 +28°C° 0 mm 2 mps 750 mmHg 83%
    22:00 +28°C° 0 mm 1 mps 750 mmHg 83%
    23:00 +27°C° 0 mm 1 mps 750 mmHg 83%
    Show more